Regional Weather Roundup
Issued by NWS

Home | Current Version | Previous Version | Text Only | Print | Product List | Glossary Off
Versions: 1 2 3 4 5 6 7 8 9 10 11 12 13 14 15 16 17 18 19 20 21 22 23 24 25 26 27 28 29 30 31 32 33 34 35 36 37 38 39 40 41 42 43 44 45 46 47 48 49 50

000
ASUS44 KMEG 261910
RWRTN
TENNESSEE HOURLY STATE WEATHER ROUNDUP
NATIONAL WEATHER SERVICE MEMPHIS TN
200 PM CDT THU MAY 26 2016

TNZ002-004-019-021-049-052-054-088>092-262000-
WEST TENNESSEE

CITY           SKY/WX    TMP DP  RH WIND       PRES   REMARKS
MEMPHIS INTL   CLOUDY    88  72  58 S13       29.99F HX  94
NWS MEMPHIS      N/A     89 N/A N/A MISG        N/A
JACKSON        MOSUNNY   88  73  61 S10G20    30.00F HX  95
DYERSBURG      MOSUNNY   88  72  58 SW12G17   29.98F HX  94
UNION CITY     MOSUNNY   86  75  70 S9        29.98F HX  95
PARIS          MOSUNNY   84  72  65 S7        30.00F
LEXINGTON      MOSUNNY   88  72  58 S10       30.01F HX  94
$$

TNZ008-025-027-028-033-062-065-066-262000-
NORTH MIDDLE TENNESSEE

CITY           SKY/WX    TMP DP  RH WIND       PRES   REMARKS
NASHVILLE      MOSUNNY   88  65  46 S14G20    30.03F HX  90
CLARKSVILLE    MOSUNNY   85  73  67 SW9       30.00F HX  91
SMYRNA         MOSUNNY   88  65  46 S12G20    30.04F HX  90
COOKEVILLE     MOSUNNY   86  70  58 S9        30.08F HX  90
CROSSVILLE     MOSUNNY   80  61  52 VRB6      30.15F
$$

TNZ061-075-076-078-094-096-097-262000-
SOUTH MIDDLE TENNESSEE

CITY           SKY/WX    TMP DP  RH WIND       PRES   REMARKS
FAYETTEVILLE   PTSUNNY   86  63  45 S10       30.09F
TULLAHOMA      MOSUNNY   84  59  42 S9        30.11F
WINCHESTER     MOSUNNY   88  61  40 S7        30.11F
MCMINNVILLE    SUNNY     86  64  48 SW9       30.10F
COLUMBIA       MOSUNNY   88  73  62 S12       30.03F HX  96
SHELBYVILLE    PTSUNNY   91  64  40 S12       30.08F HX  93
$$

TNZ017-018-042-046-047-262000-
NORTHEAST TENNESSEE

CITY           SKY/WX    TMP DP  RH WIND       PRES   REMARKS
TRI CITIES     LGT RAIN  71  63  75 W8        30.20F
$$

TNZ012-013-036-069-073-074-262000-
CENTRAL EAST TENNESSEE

CITY           SKY/WX    TMP DP  RH WIND       PRES   REMARKS
KNOXVILLE      MOSUNNY   80  64  58 E9        30.15F
OAK RIDGE      SUNNY     81  60  48 CALM      30.16F
GATLINBURG     SUNNY     73  64  73 E5        30.17F
$$

TNZ083-085-099-262000-
SOUTHEAST TENNESSEE

CITY           SKY/WX    TMP DP  RH WIND       PRES   REMARKS
CHATTANOOGA    MOSUNNY   89  55  31 CALM      30.11F
$$

SKY/WX REPORTED AS FAIR MEANS FEW OR NO CLOUDS BELOW
12 THOUSAND FEET.




USA.gov is the U.S. government's official web portal to all federal, state and local government web resources and services.